Regional Weather Roundup
Issued by NWS

Home | Current Version | Previous Version | Graphics & Text | Print | Product List | Glossary On
Versions: 1 2 3 4 5 6 7 8 9 10 11 12 13 14 15 16 17 18 19 20 21 22 23 24 25 26 27 28 29 30 31 32 33 34 35 36 37 38 39 40 41 42 43 44 45 46 47 48 49 50
447
ASUS43 KLMK 300302
RWRKY
KENTUCKY REGIONAL WEATHER ROUNDUP
NATIONAL WEATHER SERVICE LOUISVILLE KY
1100 PM EDT WED MAR 29 2017

NOTE "FAIR" INDICATES FEW OR NO CLOUDS BELOW 12,000 FEET
WITH NO SIGNIFICANT WEATHER AND/OR OBSTRUCTIONS TO VISIBILITY.

KYZ001>023-026-027-061>063-070>075-300400-
WESTERN AND SOUTH CENTRAL KENTUCKY

CITY           SKY/WX    TMP DP  RH WIND       PRES   REMARKS
PADUCAH        PTCLDY    67  56  67 SE7       29.81F
HENDERSON      CLOUDY    63  52  67 E9        29.86S
OWENSBORO      MOCLDY    63  53  70 E15       29.89F
HOPKINSVILLE   CLOUDY    68  59  71 E5        29.87S
BOWLING GREEN  CLOUDY    64  55  72 E8        29.92S
GLASGOW        NOT AVBL
$$

KYZ024-025-028>034-038-045-046-053-300400-
NORTH CENTRAL KENTUCKY

CITY           SKY/WX    TMP DP  RH WIND       PRES   REMARKS
LOUISVILLE/SDF CLOUDY    60  46  59 E13       29.98F
LOUISVILLE/LOU CLOUDY    60  47  61 E12       29.98F
FORT KNOX      PTCLDY    59  50  74 E12       29.94F
$$

KYZ035>037-039>044-047>052-055>060-089>105-300400-
NORTHEAST KENTUCKY

CITY           SKY/WX    TMP DP  RH WIND       PRES   REMARKS
LEXINGTON      CLEAR     55  45  68 E17       30.02S
COVINGTON      MOCLDY    53  44  71 E14       30.03F
FRANKFORT      CLEAR     55  44  66 E12       30.00F
$$

KYZ054-064>069-076>088-106>120-300400-
SOUTHEAST KENTUCKY

CITY           SKY/WX    TMP DP  RH WIND       PRES   REMARKS
JACKSON        CLEAR     53  45  74 VRB6      30.04F
LONDON         CLEAR     62  48  60 NE5       29.99F
SOMERSET       NOT AVBL
MIDDLESBORO    CLEAR     58  52  79 CALM      30.00F
MONTICELLO     CLEAR     61  53  75 NW6       29.99R
$$





USA.gov is the U.S. government's official web portal to all federal, state and local government web resources and services.